Weather in Ziryanka

Russia / Sakha (Yakutia) Republic     65°44′10″N   150°53′25″E
temp.,
°C
wind,
m/s
gust,
m/s
humid.,
%
clouds,
%
prec.,
mm/h
press.,
hPa
HPBL,
m
9 march, tue
tue923:00−28s348080 0.1 100242
02:00−28s468297 0.0 1002108
05:00−28s488497 0.0 1002133
08:00−28s488394 0.0 1002150
11:00−24s587997 0.0 1004291
14:00−22ssw4678100 0.0 1005356
17:00−22ssw3583100 0.0 1005259
20:00−26s338788 0.0 100723
10 march, wed
wed1023:00−28s448771 0.0 100961
02:00−28sse478422 0.0 1009105
05:00−28s598211 0.0 1008154
08:00−28sse59790 0.0 1008176
11:00−23s713751 0.0 1007391
14:00−20s712760 0.0 1006485
17:00−20s7127913 0.0 1005401
20:00−23sse6127812 0.0 1005228
11 march, thu
thu1123:00−24sse510789 0.0 1005198
02:00−25s5107819 0.0 1004190
05:00−25s587933 0.0 1004147
08:00−25s467996 0.0 100488
11:00−20s477661 0.0 1003266
14:00−16s587840 0.0 1003339
17:00−16s468320 0.0 1004187
20:00−21ssw23830 0.0 100620
12 march, fri
fri1223:00−21sw23852 0.0 100821
02:00−24nnw128488 0.0 100920
05:00−25nnw238994 0.0 100925
08:00−24n2390100 0.0 100943
11:00−20n3586100 0.0 1009248
14:00−18n4686100 0.0 1007348
17:00−18n4690100 0.0 1007386
20:00−20nnw4896100 0.0 1008249
13 march, sat
sat1323:00−21nnw5896100 0.1 1008294
02:00−23nnw61095100 0.1 1008329
05:00−24nnw6996100 0.1 1009311
08:00−25nnw5896100 0.1 1010291
11:00−24n5895100 0.1 1010335
14:00−23n4793100 0.0 1009402
17:00−23n3593100 0.1 1008357
20:00−27n239880 0.0 100921